Temperature
27 26 25 25 28 29 29 30 30 30 29 29 29 28 27 26 25 23 22 21 20 20 20 20 19 19 19 19 19 19 18 19 19 18 18 18 18 18 18 18 18 18 18 18 18 18 18 18 18
27 26 26 28 29 29 29 30 30 30 30 29 28 27 26 25 24 23 22 21 21 20 19 20 19 19 19 19 19 18 18 18 18 18 18 18 18 18 18 18 18 18 18 18 18 18 18 18 18
27 27 29 31 31 30 30 30 30 30 30 29 28 26 26 25 24 23 22 22 21 20 20 20 19 19 19 19 18 18 18 18 18 18 18 18 18 18 18 18 18 18 18 18 18 18 18 18 18
27 29 31 32 31 31 31 31 31 31 30 29 28 26 25 24 24 23 22 22 21 20 20 20 20 19 19 19 18 18 18 18 18 18 18 18 18 18 18 18 18 18 18 18 18 18 18 18 18
29 31 32 32 32 32 32 32 31 31 30 29 27 26 25 24 23 23 23 22 21 20 20 20 20 19 19 19 18 18 18 18 18 18 18 18 18 18 18 18 18 18 18 18 18 18 18 18 18
31 33 31 31 32 32 33 32 31 31 30 28 27 26 24 24 23 23 23 22 21 20 20 20 20 19 19 19 19 19 18 18 18 18 18 18 18 18 18 18 18 18 18 18 18 18 18 18 18
33 33 32 32 32 32 33 32 31 31 30 29 27 26 24 24 23 23 23 22 22 21 20 20 20 20 19 19 19 19 18 18 18 18 18 18 18 18 18 18 18 18 18 18 18 18 18 18 18
34 34 33 33 32 32 33 32 31 30 30 29 28 27 25 24 23 23 23 22 22 21 20 20 19 19 19 19 19 19 19 18 18 18 18 18 18 18 18 18 18 18 18 18 18 18 18 18 18
35 34 33 33 33 33 33 32 31 30 30 29 28 27 25 24 24 23 23 22 22 21 21 20 20 19 19 19 19 19 19 18 18 18 18 18 18 18 18 18 18 18 18 18 18 18 18 18 18
35 34 34 34 34 34 33 32 31 30 30 28 27 25 24 24 23 23 23 22 22 21 21 20 20 20 19 19 19 19 18 18 18 18 18 18 18 18 18 18 18 18 18 18 18 18 18 18 18
36 35 35 35 34 34 33 33 32 31 30 28 26 25 24 24 24 24 23 23 22 22 21 21 20 20 20 19 19 18 18 18 18 18 18 18 18 18 18 18 18 18 18 17 17 18 17 17 17
36 36 35 35 34 34 33 33 32 31 30 28 27 26 25 24 24 24 24 23 22 22 21 21 20 20 20 19 19 19 19 19 18 18 18 18 18 18 18 18 18 18 18 18 17 18 17 17 17
35 35 35 35 34 34 33 33 32 31 30 28 27 26 25 25 25 24 24 23 22 22 21 21 20 20 20 19 19 19 19 19 19 19 18 18 18 18 18 18 18 18 18 18 18 17 17 17 17
35 35 35 35 34 33 32 32 32 31 30 28 27 27 26 25 25 24 24 23 22 21 21 20 20 20 20 20 19 19 19 19 19 19 18 18 18 18 18 18 18 18 18 18 18 18 18 18 18
35 35 35 35 35 33 32 31 32 31 30 29 28 27 26 26 25 24 24 23 22 21 21 20 20 20 19 19 19 19 19 19 19 19 19 18 18 18 18 18 18 18 18 18 18 18 18 18 18
35 34 34 35 36 34 33 30 32 31 30 30 29 28 27 26 25 24 23 23 22 21 21 20 20 20 20 19 19 19 19 19 19 19 19 18 18 18 18 18 18 18 18 18 18 18 18 18 18
34 34 34 35 36 35 34 31 32 32 31 30 29 28 27 26 25 24 24 22 22 21 21 21 20 20 20 19 19 19 19 19 19 19 19 18 18 18 18 18 18 18 18 18 18 18 18 18 18
34 34 34 35 36 35 34 33 33 32 32 31 30 28 27 26 25 24 24 23 22 21 21 21 20 20 20 19 19 19 19 19 19 19 19 19 18 18 18 18 18 18 18 18 18 18 18 18 18
35 35 34 35 36 35 34 34 34 33 32 31 30 29 27 26 26 25 24 23 22 21 21 21 20 20 20 19 19 19 19 19 19 19 19 19 19 18 18 18 18 18 18 18 18 18 18 18 18
35 34 34 35 36 35 35 34 34 34 33 32 31 29 28 27 26 25 24 23 22 22 21 21 21 21 20 20 20 19 19 19 19 19 19 19 19 18 18 18 18 18 18 18 18 18 18 18 18
34 34 34 35 35 35 34 33 33 34 33 32 31 30 29 28 27 25 24 24 23 22 21 21 21 21 21 20 20 19 19 19 19 19 19 19 18 18 18 18 18 18 18 18 18 18 18 18 18
34 35 35 35 34 34 34 31 32 33 33 33 32 31 30 29 27 26 25 24 23 23 22 21 21 21 21 20 20 19 19 19 19 19 19 19 19 18 18 18 18 18 18 18 18 18 18 18 18
35 36 35 35 34 33 34 33 32 33 32 33 33 32 31 30 28 27 26 25 24 23 22 22 21 21 21 20 20 19 19 19 19 19 19 19 19 19 19 18 18 18 18 18 18 18 18 18 18
35 35 35 34 34 32 33 33 32 33 32 32 33 32 31 30 29 27 26 25 24 24 23 22 22 22 21 21 20 20 20 19 19 19 19 19 19 19 19 18 18 18 18 18 18 18 18 18 18
34 33 32 31 31 31 34 34 33 34 34 34 34 33 32 30 29 28 27 26 25 24 23 22 22 22 21 21 20 20 20 20 19 19 19 19 19 19 19 18 18 18 18 18 18 18 18 18 18
34 33 31 30 31 31 32 33 34 35 35 35 34 33 32 31 30 28 27 26 25 24 24 23 22 22 21 21 20 20 20 19 19 19 19 19 19 19 19 18 18 18 18 18 18 18 18 18 18
33 33 34 33 33 32 32 33 34 35 35 35 34 33 32 31 30 29 27 26 25 25 24 23 22 22 21 21 21 20 20 20 20 19 19 19 19 19 19 18 18 18 18 18 18 18 18 18 18
34 34 34 33 31 31 32 33 33 33 34 34 34 33 32 31 30 29 28 27 26 25 24 23 22 22 21 21 21 20 20 20 20 20 19 19 19 19 19 19 18 18 18 18 18 18 18 18 17
33 33 33 33 32 31 31 32 33 33 34 34 34 33 32 31 30 29 28 27 26 25 24 23 23 22 21 21 21 20 20 20 20 19 19 19 19 19 19 18 18 18 18 18 18 18 17 17 17
34 33 33 31 31 31 31 32 34 34 34 34 34 33 32 31 30 29 28 27 27 26 25 23 23 22 22 21 21 21 20 20 20 19 19 19 19 19 19 19 18 18 18 18 18 17 17 17 17
Wind_Speed
9 11 10 6 3 6 16 15 15 15 15 15 16 15 17 15 12 12 13 16 17 16 15 14 13 13 12 12 11 12 12 12 12 12 12 11 12 12 12 12 12 11 12 12 11 12 12 13 13
9 11 9 4 3 11 15 14 15 14 13 14 18 19 19 18 16 15 14 15 17 17 16 15 14 13 13 12 12 12 12 11 12 12 11 11 11 11 11 11 11 11 11 11 11 11 12 12 12
10 14 6 1 11 14 15 14 13 13 12 15 17 17 14 13 15 13 14 17 16 17 18 17 15 14 13 12 12 11 11 11 11 11 11 10 10 10 10 10 10 10 11 11 11 11 12 12 12
7 6 1 7 16 16 15 13 13 13 12 14 15 13 13 13 15 15 16 18 17 18 19 17 15 14 13 12 11 11 11 11 10 10 10 10 10 10 10 10 10 10 10 11 11 11 12 12 11
8 4 4 12 17 15 14 13 14 14 14 17 18 17 15 16 17 15 14 15 17 18 19 17 15 14 13 12 11 11 11 10 10 10 9 9 9 10 10 10 10 9 10 10 11 11 11 11 10
5 2 5 13 16 14 13 14 14 15 16 17 18 17 13 14 14 13 14 14 16 17 18 17 15 14 13 12 11 11 10 10 10 9 9 9 9 10 10 10 10 9 9 10 10 10 10 10 8
3 4 8 14 15 13 13 13 13 13 13 13 16 15 12 13 12 12 13 13 14 17 16 15 15 14 13 12 11 10 9 9 9 9 9 9 10 10 10 10 10 9 9 9 9 9 9 8 7
2 4 7 12 14 14 14 14 13 13 12 10 11 11 14 15 13 12 12 12 12 13 14 14 15 14 13 12 11 10 10 9 8 8 8 9 9 10 10 10 10 10 9 8 9 8 8 8 6
2 5 9 12 12 12 12 14 12 12 12 12 12 16 18 17 15 13 11 10 10 10 10 11 12 12 13 13 13 11 10 9 8 8 9 9 9 10 10 11 11 10 9 8 8 8 8 8 7
4 7 12 11 12 11 10 11 11 10 12 14 16 18 18 16 14 13 12 11 10 9 9 8 9 9 10 11 12 11 10 10 9 8 10 9 8 9 11 12 11 9 8 8 8 8 8 8 7
7 10 10 10 10 9 10 10 10 10 11 14 17 18 17 15 13 12 11 11 11 9 8 8 7 6 6 7 9 7 7 9 8 7 7 8 7 9 11 10 9 9 9 8 8 8 8 8 6
6 8 7 8 8 8 9 10 10 12 14 15 17 18 16 14 12 11 11 11 11 10 8 8 7 5 4 4 4 5 5 6 6 8 7 6 3 4 7 7 9 8 7 6 6 6 7 7 6
4 5 5 6 7 9 8 9 10 13 15 16 17 17 15 14 12 10 10 10 10 9 8 8 8 6 4 3 1 2 3 4 7 8 6 6 4 3 4 4 6 6 7 7 5 5 4 3 5
2 2 2 4 6 8 7 5 9 13 15 15 15 15 14 13 12 11 10 9 9 8 8 8 8 7 5 3 1 1 1 3 4 7 8 5 4 4 3 3 3 4 5 5 6 5 4 3 3
4 4 4 4 6 9 8 3 6 13 14 14 14 13 13 12 11 10 10 9 9 8 8 8 8 8 6 5 4 3 3 4 2 5 7 6 4 5 4 3 3 4 6 6 5 4 4 3 4
8 8 4 4 4 7 6 6 9 13 13 12 12 13 13 11 11 11 11 9 8 9 9 8 8 9 7 5 4 3 2 2 3 4 5 6 5 5 3 2 3 4 5 5 3 3 3 3 3
10 8 5 4 4 4 5 7 11 12 13 12 12 12 13 12 11 11 11 10 9 9 9 7 5 8 8 7 4 3 1 0 1 2 3 6 6 6 4 2 2 4 3 3 4 3 3 3 3
8 6 4 4 4 2 4 7 11 12 12 12 12 13 13 12 11 11 11 11 9 9 9 8 6 6 6 6 4 3 2 2 2 3 4 5 6 6 5 4 4 4 2 2 2 2 2 2 3
8 7 5 2 3 3 4 6 10 11 11 12 13 13 13 13 12 12 12 12 11 10 9 8 8 7 6 5 5 4 4 4 4 4 5 6 6 6 5 3 2 3 2 2 3 3 3 3 3
9 9 8 4 3 3 4 4 8 12 12 12 13 14 14 14 14 13 12 12 12 11 9 9 8 8 7 5 4 4 3 3 4 3 4 6 6 5 6 4 3 3 2 3 3 3 2 3 4
10 9 8 6 3 6 5 4 5 9 11 12 13 14 15 16 15 14 13 12 12 12 11 10 9 8 8 7 5 4 3 1 1 2 3 4 6 6 5 5 3 3 3 4 4 4 5 4 4
11 9 8 9 8 8 8 5 7 9 11 13 13 14 15 15 16 15 14 13 13 12 11 9 9 8 8 7 6 6 5 4 4 3 3 3 5 5 6 5 4 4 3 4 5 5 4 4 4
11 9 8 10 11 11 10 7 6 11 10 12 14 15 15 15 16 16 15 13 12 12 12 10 9 8 7 7 6 5 4 4 3 3 3 3 3 4 5 5 4 4 3 4 4 3 5 4 4
11 10 10 11 11 12 12 9 5 8 8 10 13 13 14 14 15 15 14 12 11 11 11 11 10 8 8 7 6 6 5 4 3 3 3 3 3 4 4 5 3 4 4 4 4 4 5 5 5
12 11 9 10 10 11 11 8 4 7 9 10 11 12 13 14 15 15 14 14 11 11 11 11 11 9 9 8 7 6 5 5 5 4 4 4 3 3 3 4 3 3 4 4 5 5 6 6 6
14 15 12 10 9 6 6 6 5 9 7 7 9 11 13 14 15 15 14 13 12 11 11 11 11 10 9 8 7 5 5 4 3 4 3 3 2 2 2 3 3 4 5 5 4 5 6 6 6
16 15 17 15 16 11 7 7 8 9 9 9 10 12 12 13 14 16 16 14 13 12 11 11 11 10 10 9 7 6 5 4 3 3 4 3 2 3 3 3 4 4 4 4 4 4 5 5 5
18 15 11 13 11 12 9 9 6 12 12 10 10 12 11 12 11 13 14 14 13 12 11 11 10 9 9 9 8 7 6 5 4 2 2 2 2 2 2 3 4 4 4 5 4 4 5 5 5
17 17 13 11 10 11 9 4 4 7 8 9 10 11 11 12 13 12 11 13 13 13 13 11 11 10 9 8 7 6 6 6 5 4 3 2 2 2 3 3 4 4 4 4 4 4 4 4 4
17 18 16 11 10 11 11 5 6 9 9 8 7 9 9 10 11 13 12 11 12 13 13 12 11 11 10 8 8 7 6 5 5 5 4 3 3 3 3 3 3 4 3 3 3 4 4 3 3
Wind_Direction
213 217 215 234 241 72 66 64 67 66 62 59 61 69 66 62 79 97 117 119 117 118 120 115 109 107 106 104 102 102 102 102 102 101 100 99 100 101 101 100 100 103 106 110 112 113 114 111 110
239 234 229 243 65 73 72 69 69 71 76 74 70 74 74 74 88 104 115 121 123 123 122 114 110 107 106 106 104 104 103 103 103 103 103 102 101 101 103 102 102 104 107 111 114 116 118 117 114
245 252 259 101 64 69 76 78 81 80 81 84 77 70 75 89 100 112 126 129 121 114 111 112 113 110 108 108 108 106 105 103 103 103 102 103 104 104 104 104 104 105 109 111 115 118 119 119 119
252 254 231 78 75 74 79 85 91 90 86 89 91 81 78 91 105 119 131 126 123 120 116 117 117 114 112 111 109 106 107 107 105 106 107 108 109 109 109 106 106 108 111 114 116 118 119 121 126
256 269 70 80 78 78 80 81 81 82 81 84 90 94 91 96 110 124 126 126 122 118 118 122 122 118 117 115 112 110 109 111 112 114 113 112 113 113 113 110 109 110 114 118 119 120 122 126 132
278 271 83 82 80 79 83 87 89 90 95 102 105 103 102 112 119 125 125 121 120 119 118 125 127 126 124 121 118 115 114 114 115 118 121 121 119 118 118 116 116 116 118 122 123 124 127 129 137
294 40 76 87 86 80 77 83 85 88 86 95 109 112 123 125 124 123 117 116 122 123 129 136 137 134 131 129 126 122 120 119 121 124 129 129 128 126 126 124 123 123 122 125 127 128 132 139 147
340 71 76 80 84 83 83 82 82 88 87 96 114 122 135 133 133 123 117 115 119 126 134 142 144 144 147 140 137 134 134 132 134 138 142 141 138 136 138 133 129 129 130 131 133 134 139 146 159
10 61 71 75 82 86 91 95 94 92 94 80 82 117 131 138 137 133 128 122 124 127 134 142 142 151 153 148 146 151 150 152 157 160 162 163 163 151 149 135 137 138 141 142 143 146 150 160 178
59 73 72 78 85 89 88 97 111 110 104 99 99 112 130 141 145 148 145 141 141 137 132 137 142 149 152 144 147 161 165 164 188 173 174 183 178 152 138 141 146 150 155 157 160 164 170 183 187
54 69 78 82 85 90 93 90 99 111 113 122 127 133 142 147 153 153 150 150 146 146 144 140 134 131 128 131 153 161 157 161 180 167 165 170 153 143 142 152 158 168 174 179 167 179 194 202 198
64 69 76 79 88 86 85 89 86 90 101 119 132 141 148 155 158 158 153 150 142 144 146 134 121 104 81 89 123 148 158 164 155 155 180 156 155 166 151 159 165 173 177 175 179 194 203 202 195
69 77 84 96 94 87 83 89 91 99 108 119 133 144 153 159 160 157 141 138 138 144 144 124 116 104 91 65 7 150 151 154 151 159 174 162 164 157 147 151 158 174 172 170 184 199 197 192 200
22 68 116 120 111 108 93 97 109 113 121 129 140 149 157 159 159 146 142 144 143 149 145 137 136 133 135 148 233 336 173 136 161 160 158 169 158 143 148 147 161 179 182 179 184 189 183 200 205
282 257 208 166 140 123 111 109 123 129 133 140 146 153 153 157 155 152 152 151 152 152 151 151 156 153 163 177 197 203 216 163 169 142 150 164 167 158 157 162 176 195 186 179 190 195 182 200 207
245 248 230 177 151 146 145 145 154 144 145 148 153 154 155 159 162 158 155 156 153 154 157 177 176 159 166 186 201 226 232 141 150 157 159 163 175 171 172 179 190 184 189 186 187 208 193 204 208
249 236 212 186 159 165 158 144 154 155 155 157 160 157 159 164 167 159 159 158 156 153 157 172 171 160 171 181 188 225 211 122 171 157 160 170 184 189 191 195 185 200 198 197 209 182 198 203 211
267 254 214 197 161 188 160 154 160 163 165 165 165 162 164 169 173 165 165 162 158 156 160 167 176 168 173 177 180 209 208 192 203 202 181 180 195 199 199 206 198 210 197 203 215 177 195 222 224
283 291 289 243 158 226 194 170 168 168 174 170 169 168 169 173 174 168 170 168 166 164 166 171 180 176 181 187 187 192 201 207 204 207 189 191 206 200 199 237 168 200 208 212 215 202 206 220 231
264 265 265 244 170 255 249 206 178 171 178 174 174 174 175 174 172 170 174 175 173 170 171 173 180 181 188 190 190 193 199 215 208 208 184 199 206 204 207 204 209 197 201 221 230 221 222 231 221
255 258 273 279 241 237 250 250 191 182 173 174 177 177 177 178 174 173 178 179 177 174 178 184 182 182 186 186 189 192 176 202 225 205 196 208 211 217 224 200 212 208 209 209 215 222 220 229 241
255 259 265 273 274 269 249 236 197 199 186 178 178 179 178 176 173 173 179 181 181 178 178 175 176 181 179 183 195 197 191 200 207 199 204 212 218 223 221 214 210 217 234 212 219 221 226 230 241
261 276 270 269 270 273 258 253 189 192 193 181 180 182 178 174 172 173 177 178 180 177 174 173 170 175 176 184 192 194 206 206 198 185 198 208 216 221 224 218 205 209 231 231 235 233 230 232 237
258 265 263 264 265 261 257 257 187 189 181 185 181 175 169 168 167 167 170 169 173 172 169 168 166 172 175 187 194 194 204 203 203 197 194 207 216 214 219 222 202 206 223 231 234 237 238 241 246
235 244 246 242 244 251 251 244 182 164 167 177 165 160 162 165 167 165 167 168 169 170 168 164 163 171 179 187 194 197 200 205 209 212 208 213 224 203 197 216 195 218 229 228 228 236 243 243 245
228 236 242 252 251 251 251 247 196 156 153 152 152 153 159 166 169 165 167 167 166 170 169 164 164 171 179 186 188 190 196 211 201 206 224 223 232 220 195 204 206 225 234 241 230 241 241 240 243
237 236 246 256 264 265 223 220 171 158 155 163 161 153 165 167 165 163 167 167 167 172 169 165 161 168 176 181 178 184 190 199 198 198 208 218 222 235 210 215 219 229 235 246 247 246 251 249 245
240 244 250 256 269 276 254 220 203 163 163 168 170 161 158 156 161 163 164 165 166 169 165 161 160 166 172 175 180 182 182 186 193 213 211 213 236 257 252 244 242 243 240 235 240 253 248 245 251
226 239 250 264 269 269 271 275 126 150 157 163 169 155 161 163 167 160 162 163 165 167 166 164 160 164 171 175 176 164 169 181 187 193 205 207 225 236 246 253 258 259 255 250 244 255 260 257 260
233 234 234 240 252 271 276 260 167 166 162 166 165 151 156 161 157 154 161 166 169 170 167 166 166 170 172 170 168 167 169 175 185 185 188 197 209 224 230 240 254 265 269 271 266 272 274 268 270
Height
1486 1486 1486 1489 1488 1488 1493 1490 1487 1490 1492 1494 1495 1497 1502 1505 1512 1525 1528 1528 1530 1531 1532 1534 1535 1537 1538 1539 1540 1541 1543 1544 1545 1546 1547 1548 1549 1550 1551 1552 1553 1554 1555 1556 1557 1558 1559 1561 1562
1486 1487 1490 1488 1488 1497 1499 1491 1492 1493 1495 1497 1500 1503 1508 1512 1517 1523 1527 1530 1532 1533 1534 1536 1537 1539 1540 1541 1542 1543 1544 1546 1547 1548 1549 1550 1551 1552 1553 1554 1555 1556 1557 1558 1559 1559 1561 1562 1563
1486 1488 1489 1483 1486 1496 1498 1492 1493 1494 1496 1499 1504 1509 1514 1518 1522 1525 1529 1532 1534 1535 1536 1537 1539 1540 1542 1543 1544 1545 1546 1547 1549 1550 1551 1552 1553 1554 1554 1555 1556 1557 1558 1559 1560 1561 1562 1563 1565
1489 1489 1485 1483 1490 1488 1489 1490 1492 1495 1498 1501 1506 1513 1519 1522 1525 1529 1531 1534 1536 1537 1538 1539 1540 1542 1543 1544 1545 1546 1548 1549 1550 1551 1552 1553 1554 1555 1556 1557 1558 1559 1559 1560 1561 1562 1563 1565 1566
1490 1486 1485 1487 1489 1487 1487 1490 1493 1496 1499 1504 1510 1518 1523 1527 1529 1531 1533 1536 1538 1539 1540 1541 1542 1543 1544 1546 1547 1548 1549 1550 1552 1553 1554 1555 1556 1557 1557 1558 1559 1560 1561 1562 1562 1564 1565 1566 1568
1488 1483 1491 1494 1491 1488 1488 1492 1495 1498 1503 1508 1513 1519 1527 1530 1532 1534 1536 1538 1539 1541 1541 1543 1544 1545 1546 1547 1548 1549 1550 1552 1553 1554 1555 1556 1557 1558 1559 1560 1560 1561 1562 1563 1564 1565 1566 1568 1569
1487 1484 1490 1489 1492 1492 1491 1493 1497 1500 1504 1508 1513 1520 1528 1531 1534 1536 1538 1539 1541 1542 1543 1544 1546 1547 1548 1549 1550 1551 1552 1553 1554 1555 1556 1558 1559 1559 1560 1561 1561 1562 1563 1564 1565 1566 1567 1569 1570
1483 1483 1488 1488 1493 1494 1493 1496 1501 1504 1508 1511 1513 1519 1527 1532 1535 1537 1539 1541 1543 1544 1545 1546 1547 1548 1549 1550 1551 1552 1553 1554 1556 1557 1558 1559 1560 1561 1561 1562 1563 1564 1565 1566 1567 1567 1569 1570 1571
1481 1485 1491 1490 1492 1493 1493 1497 1502 1505 1509 1512 1513 1518 1526 1531 1535 1538 1540 1543 1545 1546 1547 1549 1550 1550 1551 1552 1553 1554 1555 1556 1557 1558 1559 1560 1561 1562 1563 1564 1564 1565 1566 1567 1568 1569 1570 1571 1572
1481 1487 1488 1485 1487 1491 1494 1497 1501 1505 1509 1515 1519 1524 1528 1532 1536 1538 1541 1543 1545 1547 1549 1550 1551 1552 1553 1554 1554 1555 1556 1557 1558 1559 1561 1561 1562 1564 1565 1565 1566 1567 1567 1568 1569 1570 1571 1572 1573
1481 1484 1485 1486 1489 1491 1494 1496 1500 1504 1509 1514 1520 1525 1530 1533 1536 1538 1541 1543 1545 1547 1549 1551 1552 1553 1554 1555 1555 1556 1558 1558 1560 1561 1562 1563 1564 1565 1565 1566 1567 1568 1568 1569 1570 1571 1572 1573 1574
1484 1484 1486 1487 1490 1492 1494 1497 1500 1503 1509 1515 1520 1525 1530 1533 1536 1538 1540 1543 1545 1547 1549 1550 1552 1553 1554 1555 1556 1558 1559 1559 1560 1561 1562 1564 1565 1565 1566 1567 1567 1568 1569 1570 1571 1572 1573 1574 1575
1485 1487 1487 1488 1491 1494 1497 1499 1502 1506 1511 1516 1521 1526 1530 1533 1535 1538 1540 1543 1545 1547 1549 1550 1551 1552 1553 1554 1556 1558 1559 1560 1561 1562 1563 1564 1565 1566 1567 1567 1568 1569 1570 1571 1571 1572 1573 1574 1575
1487 1487 1487 1488 1490 1494 1498 1502 1504 1508 1512 1517 1522 1525 1529 1532 1535 1537 1540 1542 1544 1546 1548 1549 1550 1551 1552 1554 1555 1557 1559 1560 1561 1562 1562 1563 1565 1566 1567 1567 1568 1569 1570 1571 1572 1572 1573 1574 1575
1489 1488 1487 1486 1488 1493 1499 1506 1505 1508 1512 1517 1521 1525 1528 1532 1534 1537 1540 1542 1543 1545 1546 1548 1549 1550 1552 1553 1555 1557 1558 1559 1561 1562 1562 1563 1564 1565 1566 1567 1567 1568 1569 1570 1571 1572 1573 1574 1575
1488 1489 1494 1486 1485 1490 1498 1512 1505 1507 1511 1515 1519 1523 1528 1531 1534 1536 1539 1541 1542 1544 1545 1547 1549 1549 1551 1552 1554 1556 1558 1559 1560 1561 1562 1563 1564 1565 1565 1566 1567 1568 1569 1570 1571 1572 1572 1573 1574
1489 1496 1495 1487 1483 1485 1492 1503 1502 1505 1508 1513 1517 1522 1526 1530 1533 1535 1537 1539 1541 1542 1544 1545 1547 1548 1550 1551 1553 1554 1556 1558 1559 1560 1561 1562 1563 1564 1565 1565 1566 1567 1568 1569 1570 1570 1571 1572 1572
1496 1491 1489 1488 1482 1483 1489 1495 1497 1501 1505 1509 1514 1519 1524 1528 1531 1534 1536 1538 1540 1541 1542 1544 1545 1547 1548 1550 1551 1553 1555 1556 1557 1558 1560 1560 1561 1562 1563 1564 1565 1566 1567 1568 1568 1569 1569 1570 1571
1485 1487 1489 1483 1478 1483 1487 1490 1492 1497 1501 1505 1511 1516 1521 1525 1529 1532 1534 1536 1538 1540 1541 1542 1544 1545 1547 1548 1550 1551 1553 1554 1556 1557 1558 1558 1560 1561 1562 1563 1563 1564 1565 1566 1567 1567 1568 1568 1569
1485 1490 1488 1481 1477 1483 1486 1487 1487 1492 1496 1501 1507 1512 1517 1522 1526 1530 1532 1535 1536 1538 1539 1541 1542 1543 1545 1547 1549 1550 1552 1553 1554 1555 1556 1557 1558 1559 1560 1561 1562 1562 1563 1564 1565 1565 1566 1567 1568
1487 1488 1487 1485 1479 1480 1487 1495 1490 1489 1492 1498 1502 1507 1512 1518 1522 1526 1530 1532 1535 1536 1537 1539 1540 1542 1543 1545 1547 1549 1550 1551 1552 1553 1554 1554 1555 1557 1558 1559 1560 1561 1561 1562 1563 1563 1564 1565 1565
1490 1479 1480 1483 1489 1492 1488 1508 1495 1490 1490 1493 1498 1503 1508 1513 1518 1523 1527 1530 1532 1534 1536 1537 1538 1540 1542 1543 1545 1547 1548 1549 1550 1551 1552 1552 1553 1554 1555 1556 1557 1558 1559 1560 1560 1561 1562 1562 1563
1483 1477 1479 1482 1487 1493 1487 1497 1497 1487 1491 1490 1493 1498 1503 1509 1514 1519 1523 1527 1530 1532 1534 1535 1537 1538 1540 1542 1543 1545 1546 1547 1548 1549 1549 1550 1551 1552 1553 1554 1555 1555 1556 1557 1558 1558 1559 1559 1559
1478 1481 1482 1484 1488 1505 1490 1494 1500 1487 1488 1488 1489 1493 1499 1505 1510 1515 1520 1524 1528 1530 1532 1533 1535 1536 1538 1540 1541 1543 1544 1545 1546 1547 1547 1548 1548 1549 1550 1551 1552 1553 1553 1554 1555 1555 1555 1556 1556
1481 1494 1508 1512 1511 1507 1483 1488 1489 1477 1476 1480 1484 1490 1496 1502 1507 1513 1517 1521 1525 1528 1530 1532 1533 1535 1536 1538 1540 1541 1543 1544 1545 1545 1546 1546 1547 1548 1548 1549 1550 1550 1551 1551 1552 1552 1552 1552 1552
1481 1488 1509 1520 1517 1505 1491 1492 1479 1469 1473 1477 1482 1487 1494 1499 1504 1509 1515 1519 1523 1526 1528 1530 1531 1533 1535 1537 1538 1540 1541 1542 1543 1544 1544 1545 1546 1546 1547 1547 1547 1547 1548 1548 1548 1549 1549 1549 1548
1481 1483 1478 1490 1494 1500 1496 1484 1474 1468 1472 1476 1480 1486 1491 1497 1502 1507 1512 1516 1520 1524 1526 1528 1530 1532 1534 1535 1537 1538 1539 1541 1542 1542 1543 1544 1544 1544 1545 1545 1545 1545 1545 1545 1545 1545 1545 1545 1545
1472 1474 1480 1490 1506 1511 1496 1489 1484 1474 1474 1475 1479 1484 1489 1495 1500 1505 1510 1514 1518 1522 1525 1527 1529 1530 1532 1534 1535 1537 1538 1539 1540 1541 1541 1542 1542 1543 1542 1542 1543 1542 1542 1542 1542 1541 1541 1541 1541
1475 1479 1481 1484 1487 1503 1509 1497 1468 1472 1472 1474 1478 1482 1488 1493 1499 1503 1507 1512 1516 1519 1523 1525 1527 1529 1531 1533 1534 1536 1536 1537 1538 1539 1540 1540 1540 1540 1540 1540 1540 1540 1539 1539 1539 1539 1538 1538 1537
1466 1472 1477 1494 1496 1491 1497 1492 1464 1466 1470 1473 1476 1481 1486 1491 1496 1500 1506 1510 1513 1517 1520 1523 1525 1527 1529 1531 1532 1534 1535 1536 1537 1537 1537 1537 1538 1538 1538 1538 1537 1537 1537 1536 1536 1536 1535 1535 1534